Location: Albany
(35.0170°S, 117.8920°E)
Time: 21:15:58
(UTC+08:00)

A-11 Canister half - Pass Details

Date: 22 January 2021
Orbit: 1525 x 1684 km, 47.3° (Epoch: 03 March)

Event Time Altitude Azimuth Distance (km) Brightness Sun altitude
Rises 10:44:53 0° 238° (WSW) 4,814 11.3 64.0°
Reaches altitude 10° 10:48:11 10° 244° (WSW) 3,803 10.9 64.6°
Maximum altitude 10:57:09 46° 313° (NW) 1,993 10.3 66.1°
Drops below altitude 10° 11:05:52 10° 22° (NNE) 3,690 11.5 67.6°
Sets 11:09:01 0° 28° (NNE) 4,661 11.8 68.1°
